This is the latest recevied weather packets stored in our database for station/object KC1DMA. If no packets are shown the sender has not sent any weather packets the latest 10 day(s).
| Time | Temp. | Humidity | Pressure | Rain* | Wind** | Luminosity | Snow |
|---|---|---|---|---|---|---|---|
| 1777313532 | 20° C | 35% | 1025 hPa | - | - | 785 W/m² | - |
| 1777313230 | 21.11° C | 35% | 1025.1 hPa | - | - | 792 W/m² | - |
| 1777312926 | 20.56° C | 35% | 1025.1 hPa | - | - | 798 W/m² | - |
| 1777312622 | 20° C | 38% | 1025.2 hPa | - | - | 802 W/m² | - |
| 1777312319 | 20.56° C | 34% | 1025.4 hPa | - | - | 808 W/m² | - |
| 1777312016 | 20° C | 36% | 1025.3 hPa | - | - | 813 W/m² | - |
| 1777311712 | 19.44° C | 36% | 1025.3 hPa | - | - | 818 W/m² | - |
| 1777311410 | 20° C | 36% | 1025 hPa | - | - | 821 W/m² | - |
| 1777311107 | 19.44° C | 37% | 1025.3 hPa | - | - | 826 W/m² | - |
| 1777310806 | 18.89° C | 37% | 1025.4 hPa | - | - | 830 W/m² | - |
| 1777310503 | 18.89° C | 45% | 1025.5 hPa | - | - | 833 W/m² | - |
| 1777310199 | 18.89° C | 39% | 1025.2 hPa | - | - | 837 W/m² | - |
| 1777309897 | 19.44° C | 44% | 1025.3 hPa | - | - | 837 W/m² | - |
| 1777309595 | 18.89° C | 40% | 1025.3 hPa | - | - | 841 W/m² | - |
| 1777309292 | 18.89° C | 43% | 1025.3 hPa | - | - | 840 W/m² | - |
| 1777308990 | 18.89° C | 42% | 1025.4 hPa | - | - | 840 W/m² | - |
| 1777308685 | 18.89° C | 40% | 1025.5 hPa | - | - | 841 W/m² | - |
| 1777308381 | 18.89° C | 41% | 1025.5 hPa | - | - | 840 W/m² | - |
| 1777308076 | 18.89° C | 49% | 1025.6 hPa | - | - | 837 W/m² | - |
| 1777307775 | 18.89° C | 41% | 1025.8 hPa | - | - | 839 W/m² | - |
| 1777307472 | 18.89° C | 41% | 1025.6 hPa | - | - | 839 W/m² | - |
| 1777307169 | 17.78° C | 44% | 1025.7 hPa | - | - | 836 W/m² | - |
| 1777306866 | 17.22° C | 44% | 1025.6 hPa | - | - | 833 W/m² | - |
| 1777306563 | 17.78° C | 46% | 1025.8 hPa | - | - | 828 W/m² | - |
| 1777306258 | 17.78° C | 46% | 1025.7 hPa | - | - | 824 W/m² | - |
* Rain since midnight (hover to see other rain measurements)
** Current wind speed in m/s (hover to see current wind gust speed)